Regional Weather Roundup
Issued by NWS Green Bay, WI

Home | Current Version | Previous Version | Text Only | Print | Product List | Glossary On
Versions: 1 2 3 4 5 6 7 8 9 10 11 12 13 14 15 16 17 18 19 20 21 22 23 24 25 26 27 28 29 30 31 32 33 34 35 36 37 38 39 40 41 42 43 44 45 46 47 48 49 50
000
ASUS43 KGRB 300910
RWRGRB

NORTH-CENTRAL AND NORTHEAST WISCONSIN REGIONAL WEATHER ROUNDUP
NATIONAL WEATHER SERVICE GREEN BAY WI
400 AM CDT THU OCT 30 2014

WIZ005-009-010>012-018-019-301000-
NORTH CENTRAL WISCONSIN

CITY           SKY/WX    TMP DP  RH WIND       PRES   REMARKS
IRONWOOD       CLOUDY    37  34  87 CALM      30.02S
MANITOWISH WTR CLOUDY    35  33  91 CALM      30.03F
ARBOR VITAE    CLOUDY    37  32  85 CALM      30.03F
EAGLE RIVER    CLOUDY    36  31  80 W3        30.03S
LAND O LAKES   CLOUDY    36  32  85 W3        30.04S
RHINELANDER    CLOUDY    36  31  82 W5        30.05S
PHILLIPS       CLOUDY    37  32  85 SW3       30.04S
ANTIGO         CLOUDY    34  32  93 W3        30.05F
TOMAHAWK       CLOUDY    35  32  88 CALM      30.05F
MERRILL        MOCLDY    32  31  98 CALM      30.06S
$$

WIZ013-073-301000-
NORTHEAST WISCONSIN

CITY           SKY/WX    TMP DP  RH WIND       PRES   REMARKS
IRON MOUNTAIN  CLOUDY    40  32  73 CALM      30.04F
MARINETTE      CLOUDY    39  34  81 CALM      30.07S
OCONTO         CLOUDY    36  35  95 CALM      30.07F
$$

WIZ017-030-035>037-045-301000-
CENTRAL WISCONSIN

CITY           SKY/WX    TMP DP  RH WIND       PRES   REMARKS
MEDFORD        MOCLDY    32  31  96 CALM      30.05F
WAUSAU         MOCLDY    32  31  96 CALM      30.06S
MOSINEE        MOCLDY    32  32 100 CALM      30.07F
MARSHFIELD     CLOUDY    33  31  92 SW7       30.06F
WISC RAPIDS    MOCLDY    31  30  96 CALM      30.09F
STEVENS POINT  MOCLDY    29  28  97 CALM      30.09S
WAUPACA        MOCLDY    32  31  96 CALM      30.09S
SHAWANO        CLOUDY    37  34  88 SW3       30.09S
CLINTONVILLE   MOCLDY    34  32  93 CALM      30.09S
$$

WIZ038-039-048-051-301000-
FOX VALLEY

CITY           SKY/WX    TMP DP  RH WIND       PRES   REMARKS
NWS GREEN BAY  PTCLDY    36  34  92 CALM      30.09S
APPLETON       MOCLDY    34  32  93 W7        30.09S
OSHKOSH        MOCLDY    36  33  89 SW5       30.08F
FOND DU LAC    PTCLDY    34  30  85 SW3       30.10S
$$

WIZ022-050-052-301000-
EAST CENTRAL WISCONSIN

CITY           SKY/WX    TMP DP  RH WIND       PRES   REMARKS
STURGEON BAY   CLOUDY    41  34  75 W5        30.08S
MANITOWOC      PTCLDY    39  35  86 W3        30.09F
SHEBOYGAN      PTCLDY    31  29  92 SW3       30.09F
$$

LMZ563-521-522-541>543-301000-
LAKESHORE

STATION/POSITION TIME  TEMP    WIND        PRES    VSBY  WAVE
                       AIR SEA DIR/SP/G                  HT/PER
                 (UTC) (F)     (DEG/KT/KT) (MB)    (MI)  (FT/S)
SHEBOYGAN LKSHOR 0900   39 50  250/  7/  7 1019.7F
KEWAUNEE LKSHORE 0900   42     280/  1/  2 1017.5F
NORTHPORT PIER   0900   42     220/  1/  3 1018.3F
N MID LAKE BUOY  0900   44 51   CALM  /  2 1018.7F         0
CHAMBERS ISLAND  0900   40     260/  1/  3 1018.6S
MENOMINEE LKSHOR 0900   42     280/  3/  4 1018.9F
$$



USA.gov is the U.S. government's official web portal to all federal, state and local government web resources and services.